[[{"header":{"parameterUnit":"m.s-1","parameterCategory":1,"la1":30.2991,"la2":30.254,"lo1":-89.0895,"lo2":-89.0444,"dy":0.0017,"dx":0.0017,"nx":28,"ny":28,"refTime":"2025-12-20T03:00:00:Z","depth":0,"parameterNumber":2,"parameterNumberName":"U-component_of_WINDS"},"data":[0,0,0,0,0,0,0,0,0,0,0,0,0,0,0,0,0,0,0,0,0,0,0,0,0,0,0,0,0,0,0,0,0,0,0,0,0,0,0,0,0,0,0,0,0,0,0,0,0,0,0,0,0,0,0,0,0,0,-1.458,-1.4581,0,-1.4631,-1.4632,-1.4632,-1.4653,-1.4653,-1.4653,-1.4652,-1.4705,-1.4707,-1.4708,0,0,0,0,0,0,0,0,0,0,0,0,0,-1.4501,-1.4503,-1.458,-1.4581,-1.4581,-1.4631,-1.4632,-1.4632,-1.4653,-1.4653,-1.4652,-1.4652,-1.4705,-1.4707,-1.4708,0,0,0,0,0,0,0,0,0,0,0,0,0,-1.4542,-1.4503,-1.458,-1.4598,-1.46,-1.4631,-1.4632,-1.4632,-1.4653,-1.4653,-1.4652,-1.4652,-1.4704,-1.4706,-1.4709,-1.4726,0,0,-1.4716,-1.4717,0,0,0,0,0,0,0,0,-1.454,-1.4545,-1.4594,-1.4596,-1.4599,-1.4635,-1.4623,-1.4664,-1.4653,-1.4633,-1.4652,-1.4652,-1.4682,-1.4686,-1.4696,-1.4729,-1.4731,-1.4716,-1.4717,-1.4718,-1.4719,0,0,0,0,0,0,0,-1.4537,-1.4543,-1.46,-1.4595,-1.4598,-1.4603,-1.4609,-1.4631,-1.4658,-1.4634,-1.4636,-1.4642,-1.4683,-1.4694,-1.4698,-1.4732,-1.4716,-1.4718,-1.4719,-1.472,-1.4781,-1.4781,0,0,0,0,0,0,-1.4531,-1.4541,-1.4599,-1.4602,-1.4568,-1.4605,-1.4611,-1.4624,-1.4658,-1.4663,-1.4642,-1.4642,-1.469,-1.4695,-1.47,-1.4722,-1.4718,-1.472,-1.4722,-1.478,-1.4781,-1.4781,0,0,0,0,0,0,-1.4529,-1.4536,-1.4597,-1.4572,-1.458,-1.4606,-1.4621,-1.4625,-1.4636,-1.4663,-1.4668,-1.4648,-1.469,-1.4696,-1.4719,-1.4724,-1.4721,-1.4723,-1.478,-1.4781,-1.4781,-1.4767,0,0,0,0,0,0,-1.4527,-1.4535,-1.4542,-1.4572,-1.4581,-1.4615,-1.4621,-1.4626,-1.4639,-1.4641,-1.467,-1.4675,-1.4691,-1.4716,-1.4722,-1.4727,-1.4725,-1.478,-1.478,-1.4781,-1.4767,-1.4767,-1.4767,0,0,0,0,0,-1.4524,-1.4537,-1.4543,-1.455,-1.459,-1.4616,-1.4621,-1.4639,-1.464,-1.4647,-1.4664,-1.4674,-1.4723,-1.4718,-1.4725,-1.4731,-1.478,-1.478,-1.4781,-1.4767,-1.4767,-1.4767,0,0,0,0,0,0,-1.4508,-1.4541,-1.4548,-1.457,-1.459,-1.4619,-1.4629,-1.4638,-1.4658,-1.4658,-1.468,-1.4686,-1.4707,-1.4722,-1.4716,-1.475,-1.4752,-1.4754,-1.4739,-1.4739,-1.4739,-1.4735,-1.4727,0,0,0,0,0,-1.4507,-1.4525,-1.4553,-1.457,-1.4579,-1.4602,-1.4614,-1.4626,-1.4647,-1.4656,-1.4675,-1.4696,-1.4716,-1.4728,-1.4748,-1.4769,-1.4776,-1.4777,-1.4777,-1.4777,-1.4778,-1.479,-1.4791,-1.4783,-1.4783,-1.4783,0,0,-1.4505,-1.4525,-1.4535,-1.4567,-1.4584,-1.4601,-1.4609,-1.4628,-1.4641,-1.4659,-1.4681,-1.4696,-1.472,-1.4742,-1.4753,-1.4755,-1.4781,-1.4777,-1.4777,-1.4778,-1.479,-1.4791,-1.4792,-1.4783,-1.4783,-1.4783,0,0,-1.4511,-1.4528,-1.4544,-1.456,-1.4585,-1.46,-1.4604,-1.4631,-1.4642,-1.4665,-1.4678,-1.4694,-1.4728,-1.4745,-1.4758,-1.4769,-1.4778,-1.4775,-1.4774,-1.4785,-1.4785,-1.4786,-1.479,-1.4791,-1.4776,-1.4776,-1.4776,0,-1.4506,-1.4533,-1.4551,-1.4569,-1.4582,-1.4598,-1.4614,-1.4629,-1.4659,-1.4668,-1.467,-1.4712,-1.473,-1.4756,-1.4758,-1.4768,-1.4773,-1.4772,-1.4784,-1.4785,-1.4786,-1.4789,-1.4791,-1.4776,-1.4776,-1.4776,-1.4776,0,-1.4525,-1.4544,-1.4554,-1.4581,-1.4596,-1.4613,-1.4633,-1.4646,-1.4656,-1.4671,-1.4694,-1.4716,-1.474,-1.4747,-1.4758,-1.4774,-1.4774,-1.478,-1.4782,-1.4785,-1.4789,-1.4791,-1.4775,-1.4775,-1.4775,-1.4775,0,0,-1.4523,-1.456,-1.4563,-1.4576,-1.4604,-1.4619,-1.4636,-1.4659,-1.4669,-1.469,-1.4705,-1.4733,-1.4737,-1.4752,-1.4765,-1.4774,-1.4781,-1.4779,-1.4779,-1.4778,-1.4801,-1.4796,-1.4798,-1.4788,-1.4788,-1.4788,-1.4799,0,-1.4532,-1.4563,-1.458,-1.4604,-1.4621,-1.4636,-1.4652,-1.467,-1.4685,-1.4701,-1.4717,-1.4737,-1.4742,-1.475,-1.4761,-1.4778,-1.4786,-1.4778,-1.4802,-1.4803,-1.4795,-1.48,-1.4796,-1.4804,-1.48,-1.48,-1.4801,0,-1.4547,-1.4566,-1.4592,-1.4618,-1.4625,-1.4639,-1.4661,-1.4677,-1.4698,-1.4708,-1.4724,-1.4736,-1.4755,-1.4756,-1.4783,-1.4776,-1.4787,-1.4797,-1.4798,-1.4801,-1.4802,-1.4803,-1.4807,-1.4809,-1.4803,-1.4803,-1.4803,0,-1.4542,-1.4574,-1.4594,-1.4604,-1.4635,-1.4644,-1.4657,-1.4678,-1.4691,-1.471,-1.4719,-1.4741,-1.4752,-1.4769,-1.4787,-1.4786,-1.4811,-1.4814,-1.482,-1.4819,-1.4824,-1.4824,-1.4831,-1.4832,-1.4832,-1.4832,-1.4832,0,-1.4551,-1.4566,-1.4592,-1.4604,-1.4621,-1.464,-1.4657,-1.4671,-1.469,-1.4705,-1.472,-1.4734,-1.4756,-1.4773,-1.4787,-1.4807,-1.4812,-1.482,-1.4824,-1.4819,-1.4818,-1.4826,-1.4826,-1.4832,-1.4832,-1.4832,-1.4832,0,-1.4548,-1.4566,-1.4588,-1.4615,-1.4622,-1.4633,-1.4656,-1.4669,-1.4683,-1.4702,-1.4708,-1.4731,-1.4751,-1.4771,-1.4798,-1.4808,-1.4827,-1.4832,-1.482,-1.4822,-1.4826,-1.4825,-1.4839,-1.4841,-1.484,-1.484,-1.484,0,-1.4552,-1.4564,-1.4592,-1.4602,-1.4615,-1.4632,-1.4645,-1.4664,-1.4677,-1.4702,-1.4711,-1.4732,-1.4751,-1.4783,-1.4802,-1.4823,-1.4829,-1.4832,-1.4832,-1.4826,-1.4828,-1.4827,-1.4829,-1.4831,-1.4831,-1.4831,-1.4831,0,-1.4557,-1.4566,-1.4583,-1.4604,-1.4618,-1.4636,-1.4654,-1.4662,-1.4684,-1.4698,-1.4718,-1.4732,-1.476,-1.4781,-1.4804,-1.4818,-1.4828,-1.4831,-1.4833,-1.4828,-1.4821,-1.4825,-1.4818,-1.4831,-1.4831,-1.4831,-1.4831,-1.4831,-1.4558,-1.4569,-1.459,-1.4609,-1.4624,-1.464,-1.4653,-1.4669,-1.4686,-1.471,-1.472,-1.4741,-1.4762,-1.4794,-1.4808,-1.4825,-1.4827,-1.4831,-1.4832,-1.4832,-1.4831,-1.4818,-1.4829,-1.4829,-1.4829,-1.4829,-1.4829,0,-1.4564,-1.4578,-1.4595,-1.4619,-1.4634,-1.4642,-1.4662,-1.4674,-1.4692,-1.471,-1.4727,-1.4751,-1.4772,-1.4792,-1.4814,-1.4823,-1.4829,-1.4829,-1.4828,-1.4831,-1.4828,-1.4823,-1.4824,-1.4824,-1.4824,-1.4824,-1.4824,-1.4824,-1.4569,-1.4587,-1.4598,-1.4624,-1.4638,-1.4658,-1.4669,-1.4684,-1.4699,-1.4724,-1.4741,-1.4754,-1.4774,-1.4797,-1.4816,-1.4822,-1.4829,-1.4828,-1.4834,-1.4831,-1.4831,-1.4832,-1.4828,-1.4829,-1.4829,-1.4836,-1.4836,-1.4837]},{"header":{"parameterUnit":"m.s-1","parameterCategory":1,"la1":30.2991,"la2":30.254,"lo1":-89.0895,"lo2":-89.0444,"dy":0.0017,"dx":0.0017,"nx":28,"ny":28,"refTime":"2025-12-20T03:00:00:Z","depth":0,"parameterNumber":3,"parameterNumberName":"V-component_of_WINDS"},"data":[0,0,0,0,0,0,0,0,0,0,0,0,0,0,0,0,0,0,0,0,0,0,0,0,0,0,0,0,0,0,0,0,0,0,0,0,0,0,0,0,0,0,0,0,0,0,0,0,0,0,0,0,0,0,0,0,0,0,3.0447,3.0447,0,3.0504,3.0505,3.0506,3.0583,3.0585,3.0586,3.0587,3.0644,3.0644,3.0645,0,0,0,0,0,0,0,0,0,0,0,0,0,3.0404,3.0404,3.0447,3.0448,3.0448,3.0504,3.0505,3.0506,3.0583,3.0585,3.0586,3.0588,3.0644,3.0644,3.0645,0,0,0,0,0,0,0,0,0,0,0,0,0,3.0438,3.0404,3.0447,3.0494,3.0498,3.0504,3.0505,3.0506,3.0583,3.0585,3.0587,3.0589,3.0644,3.0644,3.0645,3.0608,0,0,3.0646,3.0646,0,0,0,0,0,0,0,0,3.0436,3.0439,3.0486,3.049,3.0496,3.0539,3.0511,3.054,3.0582,3.0551,3.0587,3.0589,3.0607,3.0611,3.0617,3.0611,3.0614,3.0646,3.0646,3.0646,3.0647,0,0,0,0,0,0,0,3.0433,3.0437,3.047,3.0487,3.0493,3.0512,3.0519,3.0517,3.0567,3.0554,3.0559,3.0565,3.061,3.0617,3.0619,3.0614,3.0646,3.0646,3.0647,3.0647,3.0585,3.0584,0,0,0,0,0,0,3.0424,3.0435,3.0468,3.0471,3.047,3.0511,3.0519,3.0523,3.0568,3.0576,3.0564,3.0569,3.0615,3.0619,3.0621,3.0585,3.0646,3.0647,3.0647,3.0587,3.0585,3.0583,0,0,0,0,0,0,3.0423,3.0426,3.0465,3.0455,3.0461,3.051,3.0514,3.0523,3.053,3.0575,3.0584,3.0561,3.0617,3.0621,3.0612,3.0588,3.0647,3.0648,3.059,3.0587,3.0584,3.0509,0,0,0,0,0,0,3.0421,3.0426,3.0412,3.0454,3.0462,3.0455,3.0512,3.0523,3.053,3.0538,3.0575,3.0583,3.0618,3.0611,3.0613,3.0589,3.0648,3.0592,3.0588,3.0585,3.0514,3.0504,3.0496,0,0,0,0,0,3.042,3.0387,3.0411,3.0414,3.0446,3.0453,3.0458,3.05,3.0528,3.0515,3.0545,3.0582,3.059,3.0609,3.0612,3.0588,3.0594,3.0589,3.0585,3.0518,3.0506,3.0496,0,0,0,0,0,0,3.034,3.0394,3.042,3.04,3.0422,3.0466,3.0451,3.0485,3.0498,3.0504,3.0555,3.0563,3.0549,3.0568,3.0588,3.0558,3.0598,3.0593,3.0546,3.0535,3.0526,3.0522,3.0648,0,0,0,0,0,3.032,3.0322,3.0369,3.0347,3.0356,3.0402,3.0406,3.0438,3.0461,3.047,3.0499,3.0521,3.0529,3.0533,3.0542,3.0517,3.0528,3.0502,3.0493,3.0485,3.0482,3.0473,3.0463,3.0569,3.0569,3.0569,0,0,3.0278,3.0308,3.0306,3.0331,3.0352,3.0353,3.0409,3.0407,3.0409,3.047,3.0465,3.0487,3.0514,3.0498,3.0492,3.0513,3.0455,3.048,3.0473,3.0474,3.0468,3.0457,3.0449,3.0566,3.0566,3.0567,0,0,3.0205,3.0226,3.0212,3.0232,3.0263,3.0294,3.029,3.033,3.0348,3.0344,3.0391,3.0393,3.0405,3.0424,3.0435,3.0371,3.0406,3.0373,3.0325,3.0316,3.0307,3.03,3.028,3.0272,3.0369,3.0368,3.0368,0,3.0149,3.0154,3.02,3.0197,3.0208,3.0265,3.0252,3.0268,3.03,3.0306,3.033,3.0348,3.037,3.0361,3.0346,3.0352,3.0351,3.0369,3.0305,3.0298,3.0292,3.0274,3.0266,3.0364,3.0365,3.0365,3.0366,0,3.0086,3.0088,3.0073,3.0104,3.0113,3.0104,3.0151,3.0154,3.0185,3.0213,3.021,3.0239,3.0257,3.0257,3.0285,3.0252,3.0265,3.0296,3.0337,3.0277,3.0261,3.0254,3.0358,3.036,3.0361,3.0362,0,0,2.9962,3.0021,3.0015,3.0031,3.0071,3.0073,3.0068,3.0087,3.009,3.011,3.0109,3.0119,3.0149,3.0161,3.0193,3.0185,3.0136,3.0218,3.0219,3.0203,3.0104,3.0082,3.0073,3.016,3.0159,3.0158,3.0103,0,2.9897,2.9892,2.9935,2.9919,2.9923,2.9979,2.9975,2.9999,3.0026,3.0034,3.0064,3.0071,3.0109,3.0118,3.0112,3.0143,3.0117,3.0148,3.016,3.0159,3.0152,3.0064,3.0039,2.9986,3.0096,3.0095,3.0094,0,2.982,2.9838,2.9823,2.9866,2.987,2.9865,2.9888,2.9894,2.9923,2.9944,2.9959,2.9997,2.9996,3.0035,3.0035,3.0055,3.0063,3.0079,3.0078,3.0082,3.0124,3.0066,2.997,2.9962,3.0084,3.0085,3.0086,0,2.9734,2.9755,2.9749,2.9761,2.981,2.9807,2.9827,2.9858,2.9868,2.9887,2.9895,2.9913,2.9923,2.9937,2.9979,3.0003,2.9976,3.0017,2.9994,2.9993,2.9986,2.9986,2.9891,2.9988,2.9988,2.9988,2.9989,0,2.9658,2.9646,2.9712,2.9708,2.9698,2.9749,2.9737,2.9763,2.9791,2.9794,2.9843,2.9845,2.99,2.9908,2.9941,2.9938,2.9942,2.9959,2.9968,2.9956,2.9954,2.9962,2.9968,2.9986,2.9987,2.9987,2.9988,0,2.956,2.9603,2.9601,2.9649,2.9661,2.9652,2.9693,2.9693,2.9724,2.9728,2.9731,2.978,2.9793,2.9837,2.9859,2.9882,2.9869,2.9885,2.986,2.9866,2.9841,2.9843,2.9749,2.974,2.984,2.9839,2.9839,0,2.9509,2.9502,2.9551,2.9557,2.9576,2.9585,2.9596,2.9645,2.9655,2.969,2.9685,2.9702,2.9719,2.9737,2.9774,2.9793,2.9811,2.9777,2.9814,2.9803,2.9813,2.9814,2.9815,2.9769,2.9768,2.9766,2.9766,0,2.9415,2.9438,2.9452,2.9474,2.9486,2.9506,2.9528,2.953,2.9586,2.9595,2.9609,2.9622,2.9647,2.9664,2.969,2.9711,2.9748,2.9754,2.975,2.9737,2.9724,2.9733,2.9839,2.9756,2.9757,2.9757,2.9758,2.9758,2.9341,2.9339,2.9373,2.9388,2.9411,2.9431,2.9434,2.9467,2.948,2.9505,2.9534,2.9546,2.9578,2.9616,2.9635,2.9646,2.9665,2.9659,2.9658,2.9656,2.9651,2.9721,2.965,2.965,2.9651,2.9651,2.9651,0,2.9252,2.9277,2.929,2.9322,2.9334,2.9369,2.9396,2.9404,2.9414,2.9441,2.9457,2.9476,2.9493,2.9533,2.9555,2.9556,2.9573,2.956,2.9561,2.9566,2.963,2.9633,2.9545,2.9545,2.9545,2.9545,2.9545,2.9545,2.9207,2.9206,2.9233,2.9244,2.927,2.9283,2.9296,2.9316,2.9338,2.9357,2.9372,2.9399,2.9432,2.9456,2.9475,2.9486,2.9492,2.9474,2.9491,2.9551,2.9561,2.957,2.9573,2.9474,2.9474,2.9426,2.9425,2.9425]}]]